[[{"header":{"parameterUnit":"m.s-1","parameterCategory":2,"la1":30.2991,"la2":30.254,"lo1":-89.0895,"lo2":-89.0444,"dy":0.0017,"dx":0.0017,"nx":28,"ny":28,"refTime":"2023-07-28T09:00:00:Z","depth":"0","parameterNumber":2,"parameterNumberName":"U-component_of_CURRENTS"},"data":[0,0,0,0,0,0,0,0,0,0,0,0,0,0,0,0,0,0,0,0,0,0,0,0,0,0,0,0,0,0,0,0,0,0,0,0,0,0,0,0,0,0,0,0,0,0,0,0,0,0,0,0,0,0,0,0,0,0,-0.2994,-0.2995,0,-0.3065,-0.3066,-0.3067,-0.304,-0.3038,-0.3037,-0.3035,-0.3111,-0.3114,-0.3118,0,0,0,0,0,0,0,0,0,0,0,0,0,-0.2775,-0.2779,-0.2994,-0.2995,-0.2996,-0.3065,-0.3066,-0.3067,-0.304,-0.3038,-0.3036,-0.3035,-0.311,-0.3114,-0.3118,0,0,0,0,0,0,0,0,0,0,0,0,0,-0.2859,-0.2781,-0.2994,-0.2993,-0.2993,-0.3065,-0.3066,-0.3067,-0.304,-0.3038,-0.3036,-0.3034,-0.3109,-0.3114,-0.3119,-0.3194,0,0,-0.3134,-0.3136,0,0,0,0,0,0,0,0,-0.2854,-0.2867,-0.2992,-0.2993,-0.2994,-0.3043,-0.3017,-0.311,-0.3041,-0.302,-0.3035,-0.3033,-0.3092,-0.3098,-0.3113,-0.3197,-0.32,-0.3135,-0.3138,-0.314,-0.3141,0,0,0,0,0,0,0,-0.2849,-0.2863,-0.302,-0.2993,-0.2994,-0.2968,-0.2978,-0.3034,-0.3066,-0.3022,-0.3021,-0.3032,-0.3092,-0.3109,-0.3115,-0.3201,-0.3134,-0.3139,-0.3142,-0.3144,-0.3241,-0.3241,0,0,0,0,0,0,-0.2851,-0.2859,-0.3018,-0.3023,-0.2919,-0.2974,-0.2985,-0.3028,-0.3065,-0.3069,-0.3034,-0.3031,-0.3101,-0.3109,-0.3118,-0.3097,-0.314,-0.3145,-0.3147,-0.3242,-0.3241,-0.3241,0,0,0,0,0,0,-0.2846,-0.2866,-0.3015,-0.2941,-0.2959,-0.2981,-0.3029,-0.303,-0.3039,-0.3075,-0.3078,-0.3039,-0.31,-0.3111,-0.3144,-0.3104,-0.3147,-0.3151,-0.3242,-0.3242,-0.3241,-0.3128,0,0,0,0,0,0,-0.284,-0.2864,-0.2883,-0.2943,-0.2963,-0.3038,-0.3031,-0.3033,-0.3051,-0.3047,-0.3082,-0.3086,-0.3099,-0.3136,-0.3149,-0.3111,-0.3155,-0.3243,-0.3242,-0.3241,-0.3132,-0.3123,-0.3116,0,0,0,0,0,-0.2833,-0.2862,-0.2884,-0.2902,-0.2994,-0.3038,-0.3045,-0.3051,-0.3053,-0.3051,-0.3071,-0.3085,-0.3138,-0.3141,-0.3156,-0.3118,-0.3243,-0.3242,-0.3241,-0.3136,-0.3125,-0.3116,0,0,0,0,0,0,-0.2761,-0.2864,-0.2889,-0.2945,-0.2982,-0.3033,-0.3035,-0.3057,-0.3076,-0.3069,-0.31,-0.3107,-0.3112,-0.315,-0.3152,-0.3145,-0.3186,-0.3188,-0.3101,-0.3091,-0.3083,-0.2961,-0.316,0,0,0,0,0,-0.2764,-0.2819,-0.2895,-0.2934,-0.2955,-0.3002,-0.3019,-0.3031,-0.3064,-0.3069,-0.3092,-0.3115,-0.3126,-0.3135,-0.316,-0.3182,-0.308,-0.3163,-0.3155,-0.3148,-0.3059,-0.2895,-0.286,-0.3237,-0.3237,-0.3237,0,0,-0.2739,-0.2809,-0.2833,-0.2922,-0.2953,-0.2957,-0.3004,-0.3031,-0.3007,-0.3079,-0.3055,-0.3097,-0.3128,-0.3122,-0.3128,-0.3145,-0.299,-0.3146,-0.3139,-0.3053,-0.2889,-0.2851,-0.2817,-0.3237,-0.3237,-0.3237,0,0,-0.2704,-0.2789,-0.2806,-0.2847,-0.2906,-0.2929,-0.2938,-0.2991,-0.2983,-0.3001,-0.3018,-0.3002,-0.3082,-0.3034,-0.3036,-0.3003,-0.2955,-0.3065,-0.2918,-0.2763,-0.2727,-0.2694,-0.2507,-0.2459,-0.3057,-0.3057,-0.3057,0,-0.2653,-0.2708,-0.2808,-0.2829,-0.2826,-0.291,-0.2881,-0.2904,-0.2949,-0.2906,-0.2972,-0.294,-0.2997,-0.2889,-0.2894,-0.2967,-0.2881,-0.2954,-0.274,-0.2707,-0.2675,-0.2491,-0.2439,-0.3051,-0.3052,-0.3052,-0.3053,0,-0.2624,-0.266,-0.2672,-0.2719,-0.2731,-0.2734,-0.2772,-0.2765,-0.2785,-0.278,-0.2702,-0.2748,-0.2697,-0.2749,-0.2828,-0.2649,-0.2659,-0.2747,-0.2744,-0.2628,-0.2445,-0.2392,-0.3043,-0.3045,-0.3047,-0.3048,0,0,-0.2478,-0.262,-0.2609,-0.2605,-0.2668,-0.2661,-0.2622,-0.257,-0.248,-0.2522,-0.2367,-0.2411,-0.2413,-0.2411,-0.2481,-0.2378,-0.2132,-0.2485,-0.248,-0.2255,-0.1752,-0.1728,-0.1669,-0.2205,-0.2196,-0.2188,-0.1706,0,-0.2388,-0.2416,-0.2487,-0.2431,-0.2426,-0.2469,-0.2406,-0.2373,-0.2349,-0.2238,-0.222,-0.2139,-0.2294,-0.2264,-0.2177,-0.2171,-0.1992,-0.225,-0.1931,-0.1918,-0.1876,-0.1606,-0.1454,-0.1009,-0.1655,-0.1646,-0.164,0,-0.2271,-0.2321,-0.2286,-0.2277,-0.2264,-0.2227,-0.2091,-0.2054,-0.1945,-0.1915,-0.1809,-0.1823,-0.1681,-0.1842,-0.16,-0.1777,-0.171,-0.1686,-0.1669,-0.1626,-0.1794,-0.1236,-0.0889,-0.0879,-0.1559,-0.1565,-0.1571,0,-0.2078,-0.2126,-0.2091,-0.2103,-0.2129,-0.2058,-0.2026,-0.1931,-0.1849,-0.1683,-0.1592,-0.1444,-0.1369,-0.1251,-0.1281,-0.1409,-0.1004,-0.1164,-0.1012,-0.1011,-0.0792,-0.0788,-0.0345,-0.0851,-0.0852,-0.0853,-0.0854,0,-0.1919,-0.1866,-0.201,-0.1985,-0.1877,-0.1922,-0.1744,-0.1694,-0.1569,-0.1425,-0.1409,-0.1251,-0.1232,-0.1078,-0.1075,-0.0864,-0.0806,-0.0846,-0.0838,-0.0758,-0.0756,-0.0679,-0.0784,-0.0835,-0.0839,-0.0842,-0.0846,0,-0.1667,-0.1785,-0.1744,-0.1794,-0.1795,-0.1703,-0.1631,-0.1505,-0.1419,-0.1218,-0.1156,-0.1039,-0.0831,-0.0773,-0.0567,-0.0582,-0.0378,-0.0336,-0.024,-0.0229,-0.0119,-0.0228,0.0086,0.005,0.0004,0.0008,0.0011,0,-0.1535,-0.1515,-0.1594,-0.1589,-0.1604,-0.1525,-0.1462,-0.1413,-0.13,-0.1092,-0.0973,-0.0741,-0.0553,-0.022,-0.0144,0.0074,-0.0119,0.0283,0.0084,0.0054,-0.006,-0.0323,-0.04,0.044,0.0447,0.0452,0.0457,0,-0.1262,-0.1317,-0.1317,-0.1343,-0.1315,-0.1277,-0.1201,-0.1106,-0.1025,-0.0882,-0.0654,-0.0476,-0.0145,0.0153,0.0369,0.044,0.0245,0.04,0.0398,0.0407,0.0139,0.0048,-0.0068,0.0506,0.0501,0.0497,0.0495,0.0493,-0.1039,-0.1001,-0.1057,-0.1042,-0.1053,-0.1016,-0.0913,-0.086,-0.0701,-0.0481,-0.0409,-0.0118,0.0299,0.0649,0.0696,0.0885,0.0623,0.0913,0.0825,0.059,0.0451,0.0441,0.0943,0.094,0.0938,0.0937,0.0935,0,-0.0768,-0.077,-0.0754,-0.0769,-0.0729,-0.0809,-0.0721,-0.0614,-0.0432,-0.0283,-0.009,0.0353,0.0784,0.1018,0.1337,0.134,0.111,0.1291,0.1031,0.0956,0.1092,0.1001,0.1504,0.1504,0.1504,0.1504,0.1504,0.1504,-0.0628,-0.0535,-0.0556,-0.0451,-0.0474,-0.0368,-0.0308,-0.0215,-0.0093,0.0164,0.0361,0.049,0.0858,0.1407,0.1639,0.1599,0.1309,0.1302,0.1092,0.1265,0.1221,0.1179,0.1078,0.1588,0.1588,0.0964,0.096,0.0957]},{"header":{"parameterUnit":"m.s-1","parameterCategory":2,"la1":30.2991,"la2":30.254,"lo1":-89.0895,"lo2":-89.0444,"dy":0.0017,"dx":0.0017,"nx":28,"ny":28,"refTime":"2023-07-28T09:00:00:Z","depth":"0","parameterNumber":3,"parameterNumberName":"V-component_of_CURRENTS"},"data":[0,0,0,0,0,0,0,0,0,0,0,0,0,0,0,0,0,0,0,0,0,0,0,0,0,0,0,0,0,0,0,0,0,0,0,0,0,0,0,0,0,0,0,0,0,0,0,0,0,0,0,0,0,0,0,0,0,0,-0.0953,-0.0952,0,-0.088,-0.0879,-0.0878,-0.0815,-0.0815,-0.0814,-0.0814,-0.0718,-0.0716,-0.0714,0,0,0,0,0,0,0,0,0,0,0,0,0,-0.0856,-0.0859,-0.0953,-0.0952,-0.0951,-0.088,-0.0879,-0.0878,-0.0815,-0.0815,-0.0814,-0.0814,-0.0718,-0.0716,-0.0713,0,0,0,0,0,0,0,0,0,0,0,0,0,-0.085,-0.086,-0.0953,-0.0914,-0.091,-0.088,-0.0879,-0.0877,-0.0815,-0.0815,-0.0814,-0.0813,-0.0719,-0.0716,-0.0713,-0.0707,0,0,-0.0703,-0.0702,0,0,0,0,0,0,0,0,-0.085,-0.0853,-0.092,-0.0916,-0.0912,-0.0858,-0.0809,-0.082,-0.0815,-0.0848,-0.0814,-0.0813,-0.0765,-0.0758,-0.0742,-0.0702,-0.0698,-0.0703,-0.0701,-0.07,-0.0699,0,0,0,0,0,0,0,-0.0851,-0.0855,-0.0921,-0.092,-0.0915,-0.0838,-0.0837,-0.081,-0.0809,-0.0845,-0.0841,-0.0838,-0.0762,-0.0745,-0.0739,-0.0697,-0.0703,-0.07,-0.0698,-0.0697,-0.0675,-0.0677,0,0,0,0,0,0,-0.0877,-0.0857,-0.0923,-0.0919,-0.0882,-0.0841,-0.084,-0.0874,-0.0809,-0.08,-0.0839,-0.0835,-0.0751,-0.0743,-0.0736,-0.0734,-0.07,-0.0697,-0.0695,-0.0674,-0.0676,-0.0677,0,0,0,0,0,0,-0.0876,-0.0885,-0.0926,-0.0885,-0.0886,-0.0845,-0.0882,-0.0873,-0.0858,-0.0805,-0.0794,-0.0833,-0.075,-0.074,-0.0729,-0.0729,-0.0695,-0.0692,-0.0672,-0.0675,-0.0676,-0.0724,0,0,0,0,0,0,-0.0874,-0.0886,-0.091,-0.0889,-0.0889,-0.0917,-0.0883,-0.0872,-0.0858,-0.0853,-0.0797,-0.0787,-0.0749,-0.0735,-0.0726,-0.0724,-0.069,-0.0671,-0.0673,-0.0676,-0.072,-0.0727,-0.0733,0,0,0,0,0,-0.0871,-0.0919,-0.0913,-0.0919,-0.0929,-0.0918,-0.0911,-0.0874,-0.0859,-0.0857,-0.0831,-0.0789,-0.0744,-0.0733,-0.0723,-0.072,-0.067,-0.0673,-0.0676,-0.0718,-0.0726,-0.0733,0,0,0,0,0,0,-0.0886,-0.0916,-0.0909,-0.0963,-0.0942,-0.0909,-0.0907,-0.0883,-0.0859,-0.0855,-0.0805,-0.0794,-0.0791,-0.0757,-0.0746,-0.0726,-0.07,-0.0702,-0.0736,-0.0743,-0.0749,-0.0698,-0.0687,0,0,0,0,0,-0.0904,-0.0952,-0.0944,-0.0982,-0.098,-0.0943,-0.0932,-0.0909,-0.0888,-0.0875,-0.0839,-0.0809,-0.0795,-0.0771,-0.0757,-0.0736,-0.0671,-0.0731,-0.0737,-0.0742,-0.0697,-0.0584,-0.0573,-0.0687,-0.0687,-0.0687,0,0,-0.0921,-0.0941,-0.0967,-0.0987,-0.097,-0.0964,-0.0935,-0.0929,-0.0916,-0.087,-0.085,-0.0837,-0.0803,-0.0791,-0.0783,-0.0756,-0.0696,-0.0746,-0.075,-0.0701,-0.0585,-0.0573,-0.0563,-0.0689,-0.0689,-0.0689,0,0,-0.096,-0.0996,-0.1032,-0.1023,-0.1009,-0.0986,-0.099,-0.0961,-0.0943,-0.0936,-0.0903,-0.088,-0.0862,-0.0815,-0.0796,-0.0825,-0.0748,-0.0838,-0.08,-0.0694,-0.0681,-0.0669,-0.0649,-0.0634,-0.0821,-0.0821,-0.0821,0,-0.0966,-0.1018,-0.1032,-0.1044,-0.1028,-0.1002,-0.0996,-0.0984,-0.0951,-0.0914,-0.0942,-0.0864,-0.0864,-0.0789,-0.082,-0.0831,-0.078,-0.0775,-0.0695,-0.0682,-0.0668,-0.0649,-0.0632,-0.0824,-0.0824,-0.0823,-0.0823,0,-0.102,-0.1043,-0.1061,-0.1072,-0.1055,-0.1054,-0.103,-0.1005,-0.0992,-0.0956,-0.0901,-0.0885,-0.0809,-0.0839,-0.0849,-0.0754,-0.0759,-0.073,-0.0665,-0.0659,-0.0642,-0.0623,-0.0828,-0.0827,-0.0826,-0.0825,0,0,-0.1064,-0.1093,-0.1094,-0.1077,-0.1065,-0.1048,-0.1029,-0.0973,-0.0909,-0.0905,-0.0804,-0.0828,-0.0775,-0.075,-0.0734,-0.0664,-0.0603,-0.0663,-0.0656,-0.0622,-0.0411,-0.0446,-0.043,-0.0543,-0.0538,-0.0534,-0.0463,0,-0.1082,-0.1114,-0.1113,-0.1094,-0.1092,-0.1043,-0.1006,-0.0949,-0.0901,-0.0805,-0.0762,-0.0691,-0.0753,-0.0702,-0.0644,-0.0596,-0.0542,-0.0627,-0.0436,-0.0431,-0.0443,-0.0404,-0.0287,-0.0213,-0.0445,-0.0442,-0.0439,0,-0.1117,-0.1129,-0.1135,-0.1071,-0.1059,-0.1037,-0.0918,-0.0886,-0.0759,-0.0703,-0.0601,-0.0551,-0.0462,-0.0511,-0.039,-0.0435,-0.0424,-0.0404,-0.0399,-0.0379,-0.0427,-0.0242,-0.017,-0.0207,-0.041,-0.0412,-0.0415,0,-0.1122,-0.1122,-0.1122,-0.1115,-0.1058,-0.1016,-0.0972,-0.0855,-0.0762,-0.062,-0.0502,-0.0401,-0.0311,-0.0261,-0.0278,-0.03,-0.0151,-0.0167,-0.019,-0.0196,-0.0028,-0.0026,0.0068,-0.0052,-0.0053,-0.0053,-0.0053,0,-0.1131,-0.1113,-0.1129,-0.1123,-0.107,-0.1026,-0.0916,-0.0841,-0.0666,-0.0491,-0.0444,-0.0246,-0.0231,-0.0154,-0.0194,-0.0148,-0.008,-0.0154,-0.0145,-0.0058,-0.0059,-0.0029,-0.0073,-0.005,-0.0051,-0.0051,-0.0052,0,-0.1103,-0.1134,-0.1121,-0.1091,-0.1077,-0.104,-0.0895,-0.078,-0.0636,-0.0389,-0.0321,-0.0109,-0.0004,-0.0048,0.0031,-0.002,0.0034,-0.0008,0.0032,0.0045,-0.0011,-0.0062,0.0081,0.0189,0.0022,0.0022,0.0022,0,-0.1072,-0.1085,-0.1106,-0.1103,-0.1088,-0.1026,-0.0944,-0.0792,-0.0616,-0.0262,-0.0094,0.0065,0.0262,0.0288,0.0188,0.0108,0.0086,0.0154,0.0141,0.0031,-0.0017,-0.0056,0.0024,0.0309,0.0311,0.0313,0.0315,0,-0.0989,-0.103,-0.1034,-0.1055,-0.1014,-0.0929,-0.0781,-0.0615,-0.0353,-0.0095,0.0319,0.0498,0.053,0.0563,0.0354,0.0307,0.0209,0.0191,0.0143,0.0278,0.0194,0.0286,0.0126,0.0332,0.0331,0.0329,0.0328,0.0328,-0.0904,-0.092,-0.0959,-0.0963,-0.0934,-0.0785,-0.0642,-0.039,-0.0063,0.0401,0.0603,0.0947,0.0909,0.0689,0.0515,0.0326,0.033,0.0349,0.0307,0.0282,0.0377,0.0186,0.0354,0.0352,0.0351,0.035,0.0349,0,-0.0767,-0.0818,-0.0839,-0.0833,-0.0773,-0.0773,-0.0484,-0.0263,0.0162,0.0558,0.0949,0.1332,0.1176,0.095,0.0655,0.0499,0.049,0.0435,0.0458,0.0551,0.0465,0.0466,0.0591,0.0591,0.0591,0.0591,0.0591,0.0591,-0.0695,-0.0702,-0.0751,-0.0669,-0.066,-0.0471,-0.0291,0.0037,0.0368,0.0972,0.1362,0.1638,0.1625,0.0991,0.0603,0.0545,0.0558,0.0488,0.048,0.0405,0.0395,0.0385,0.0377,0.0482,0.0482,0.0691,0.0692,0.0693]}],[{"header":{"parameterUnit":"m.s-1","parameterCategory":2,"la1":30.2991,"la2":30.254,"lo1":-89.0895,"lo2":-89.0444,"dy":0.0017,"dx":0.0017,"nx":28,"ny":28,"refTime":"2023-07-28T09:00:00:Z","depth":"2","parameterNumber":2,"parameterNumberName":"U-component_of_CURRENTS"},"data":[0,0,0,0,0,0,0,0,0,0,0,0,0,0,0,0,0,0,0,0,0,0,0,0,0,0,0,0,0,0,0,0,0,0,0,0,0,0,0,0,0,0,0,0,0,0,0,0,0,0,0,0,0,0,0,0,0,0,-0.1748,-0.175,0,-0.1874,-0.1875,-0.1877,-0.2063,-0.2066,-0.207,-0.2073,-0.2201,-0.2202,-0.2202,0,0,0,0,0,0,0,0,0,0,0,0,0,-0.1683,-0.1683,-0.1748,-0.175,-0.1752,-0.1874,-0.1876,-0.1877,-0.2062,-0.2066,-0.2071,-0.2075,-0.2201,-0.2202,-0.2202,0,0,0,0,0,0,0,0,0,0,0,0,0,-0.1748,-0.1682,-0.1748,-0.1861,-0.1872,-0.1874,-0.1876,-0.1877,-0.2061,-0.2067,-0.2072,-0.2077,-0.2201,-0.2202,-0.2202,-0.21,0,0,-0.2203,-0.2203,0,0,0,0,0,0,0,0,-0.1744,-0.175,-0.1842,-0.1853,-0.1866,-0.196,-0.19,-0.1953,-0.206,-0.1987,-0.2073,-0.2079,-0.2118,-0.2126,-0.2135,-0.2106,-0.2112,-0.2203,-0.2203,-0.2203,-0.2203,0,0,0,0,0,0,0,-0.1739,-0.1745,-0.1796,-0.1844,-0.1858,-0.191,-0.1924,-0.1911,-0.202,-0.1994,-0.2008,-0.2024,-0.2126,-0.2134,-0.2139,-0.2113,-0.2203,-0.2203,-0.2203,-0.2203,-0.2133,-0.2131,0,0,0,0,0,0,-0.1721,-0.174,-0.1792,-0.18,-0.1819,-0.1907,-0.1923,-0.1923,-0.2021,-0.2042,-0.2019,-0.2032,-0.2131,-0.2139,-0.2145,-0.2176,-0.2203,-0.2203,-0.2204,-0.2135,-0.2133,-0.213,0,0,0,0,0,0,-0.1718,-0.1723,-0.1787,-0.1776,-0.1789,-0.1903,-0.1901,-0.1923,-0.1974,-0.2041,-0.2063,-0.2054,-0.2136,-0.2144,-0.2204,-0.2178,-0.2204,-0.2204,-0.2138,-0.2134,-0.2132,-0.2145,0,0,0,0,0,0,-0.1716,-0.1721,-0.1735,-0.1774,-0.1789,-0.1833,-0.1897,-0.1921,-0.1974,-0.1993,-0.2075,-0.2091,-0.214,-0.2204,-0.2204,-0.2179,-0.2204,-0.214,-0.2136,-0.2133,-0.2147,-0.2143,-0.2139,0,0,0,0,0,-0.1712,-0.1718,-0.1734,-0.1743,-0.1797,-0.1834,-0.1847,-0.1944,-0.1971,-0.2004,-0.2074,-0.2091,-0.2178,-0.2204,-0.2205,-0.2178,-0.2142,-0.2137,-0.2133,-0.2149,-0.2144,-0.2139,0,0,0,0,0,0,-0.1721,-0.1738,-0.1758,-0.1776,-0.1818,-0.1868,-0.1906,-0.1937,-0.2008,-0.2042,-0.209,-0.211,-0.2137,-0.2143,-0.217,-0.2138,-0.2148,-0.2144,-0.216,-0.2155,-0.2151,-0.216,-0.2204,0,0,0,0,0,-0.1713,-0.1722,-0.1748,-0.1774,-0.1782,-0.1831,-0.1861,-0.1921,-0.1977,-0.2016,-0.2056,-0.2088,-0.2099,-0.2129,-0.2139,-0.2132,-0.2111,-0.2101,-0.2097,-0.2094,-0.2096,-0.2069,-0.2064,-0.2115,-0.2115,-0.2115,0,0,-0.1738,-0.1739,-0.1758,-0.1776,-0.1808,-0.1842,-0.1865,-0.1921,-0.1963,-0.2008,-0.2073,-0.2076,-0.2092,-0.2108,-0.2114,-0.2128,-0.2057,-0.2088,-0.2087,-0.209,-0.2064,-0.206,-0.2056,-0.2112,-0.2113,-0.2113,0,0,-0.1753,-0.177,-0.1768,-0.1802,-0.1844,-0.1874,-0.1885,-0.1928,-0.1968,-0.2013,-0.204,-0.2052,-0.207,-0.2087,-0.2093,-0.2056,-0.203,-0.2022,-0.2027,-0.2001,-0.1997,-0.1994,-0.1926,-0.1917,-0.203,-0.203,-0.203,0,-0.1777,-0.178,-0.1784,-0.1795,-0.1845,-0.1882,-0.192,-0.1945,-0.2012,-0.2019,-0.2052,-0.2041,-0.2065,-0.2059,-0.2059,-0.2051,-0.2013,-0.2058,-0.2,-0.1997,-0.1993,-0.1925,-0.1915,-0.203,-0.203,-0.203,-0.203,0,-0.1793,-0.1814,-0.1821,-0.1845,-0.1892,-0.1942,-0.1977,-0.2005,-0.2035,-0.2049,-0.2045,-0.2062,-0.2057,-0.2037,-0.2054,-0.2008,-0.1977,-0.1995,-0.2025,-0.199,-0.1918,-0.1907,-0.2031,-0.2031,-0.2031,-0.203,0,0,-0.1801,-0.1821,-0.1833,-0.1859,-0.1936,-0.1971,-0.202,-0.2054,-0.2059,-0.2088,-0.2078,-0.208,-0.2048,-0.2047,-0.2024,-0.2007,-0.1946,-0.1991,-0.199,-0.1945,-0.1845,-0.1704,-0.1679,-0.1956,-0.1955,-0.1954,-0.1792,0,-0.1818,-0.1826,-0.186,-0.1936,-0.1953,-0.2024,-0.2059,-0.2103,-0.2113,-0.2103,-0.2085,-0.2066,-0.2059,-0.2038,-0.2017,-0.1975,-0.1923,-0.1986,-0.1866,-0.1862,-0.1761,-0.1664,-0.1578,-0.1416,-0.1781,-0.178,-0.1778,0,-0.1835,-0.1829,-0.1875,-0.1947,-0.1966,-0.2032,-0.2095,-0.2124,-0.2116,-0.2112,-0.2083,-0.2056,-0.2021,-0.2016,-0.1927,-0.1964,-0.1891,-0.1855,-0.1849,-0.1711,-0.1702,-0.1514,-0.1383,-0.1761,-0.1762,-0.1763,-0.1765,0,-0.1813,-0.1868,-0.19,-0.1938,-0.2004,-0.2053,-0.21,-0.2123,-0.2114,-0.2093,-0.2075,-0.2034,-0.1994,-0.1939,-0.1844,-0.1889,-0.1721,-0.1783,-0.1572,-0.1561,-0.1459,-0.144,-0.1684,-0.1684,-0.1685,-0.1685,-0.1686,0,-0.1813,-0.1858,-0.1894,-0.1911,-0.1964,-0.2033,-0.2067,-0.209,-0.2083,-0.2045,-0.2053,-0.1991,-0.1972,-0.1874,-0.1814,-0.1626,-0.1687,-0.1535,-0.1502,-0.1452,-0.1435,-0.173,-0.1738,-0.1679,-0.168,-0.1682,-0.1683,0,-0.1791,-0.1817,-0.1847,-0.1907,-0.1945,-0.1974,-0.2048,-0.2036,-0.205,-0.1997,-0.1988,-0.194,-0.1806,-0.173,-0.1609,-0.1551,-0.1422,-0.1325,-0.1236,-0.1195,-0.1293,-0.1303,-0.1114,-0.1108,-0.1102,-0.1098,-0.1094,0,-0.179,-0.1786,-0.1825,-0.184,-0.1879,-0.1934,-0.1958,-0.2,-0.198,-0.194,-0.1897,-0.1771,-0.1607,-0.1366,-0.125,-0.1069,-0.1178,-0.0908,-0.0988,-0.1242,-0.1231,-0.125,-0.1267,-0.0849,-0.0844,-0.0839,-0.0835,0,-0.1773,-0.1776,-0.1783,-0.1778,-0.1816,-0.1831,-0.1875,-0.1839,-0.1853,-0.1774,-0.1624,-0.1488,-0.1274,-0.1027,-0.0823,-0.0742,-0.0951,-0.0807,-0.1081,-0.1004,-0.0978,-0.0973,-0.1001,-0.0795,-0.0799,-0.0802,-0.0804,-0.0806,-0.1776,-0.1755,-0.1737,-0.1735,-0.1755,-0.171,-0.1665,-0.1634,-0.1519,-0.1347,-0.1339,-0.1092,-0.1027,-0.0634,-0.0514,-0.0464,-0.0563,-0.0581,-0.0601,-0.0625,-0.062,-0.0586,-0.0326,-0.0327,-0.0328,-0.0329,-0.033,0,-0.1721,-0.1711,-0.1704,-0.1665,-0.1615,-0.1663,-0.1595,-0.1456,-0.1224,-0.1078,-0.0876,-0.0669,-0.0445,-0.0403,-0.0243,-0.0183,-0.026,-0.0187,-0.0321,-0.0358,-0.0392,-0.0384,-0.0022,-0.0022,-0.0021,-0.002,0,0,-0.1697,-0.1648,-0.1612,-0.1526,-0.1513,-0.1398,-0.1312,-0.1055,-0.0888,-0.0577,-0.0442,-0.0375,-0.0372,-0.0208,-0.0142,-0.0057,-0.0217,-0.0037,-0.0282,-0.0476,-0.0509,-0.0605,-0.063,0,0,0,0,0]},{"header":{"parameterUnit":"m.s-1","parameterCategory":2,"la1":30.2991,"la2":30.254,"lo1":-89.0895,"lo2":-89.0444,"dy":0.0017,"dx":0.0017,"nx":28,"ny":28,"refTime":"2023-07-28T09:00:00:Z","depth":"2","parameterNumber":3,"parameterNumberName":"V-component_of_CURRENTS"},"data":[0,0,0,0,0,0,0,0,0,0,0,0,0,0,0,0,0,0,0,0,0,0,0,0,0,0,0,0,0,0,0,0,0,0,0,0,0,0,0,0,0,0,0,0,0,0,0,0,0,0,0,0,0,0,0,0,0,0,-0.0575,-0.0573,0,-0.0386,-0.0384,-0.0382,-0.0144,-0.014,-0.0136,-0.0132,0.0308,0.0316,0.0324,0,0,0,0,0,0,0,0,0,0,0,0,0,-0.0677,-0.0677,-0.0575,-0.0573,-0.057,-0.0386,-0.0383,-0.0381,-0.0144,-0.014,-0.0135,-0.013,0.0306,0.0315,0.0325,0,0,0,0,0,0,0,0,0,0,0,0,0,-0.0577,-0.0677,-0.0576,-0.0429,-0.0413,-0.0386,-0.0383,-0.038,-0.0145,-0.0139,-0.0133,-0.0128,0.0303,0.0314,0.0326,0.0282,0,0,0.0363,0.0368,0,0,0,0,0,0,0,0,-0.0583,-0.0574,-0.0453,-0.0439,-0.0421,-0.028,-0.0257,-0.0146,-0.0147,-0.0249,-0.0132,-0.0125,0.0131,0.0158,0.0174,0.0302,0.0321,0.0364,0.0371,0.0377,0.038,0,0,0,0,0,0,0,-0.059,-0.058,-0.0502,-0.0451,-0.0431,-0.0353,-0.0333,-0.0236,-0.0091,-0.024,-0.0222,-0.02,0.0143,0.0161,0.0187,0.0328,0.0364,0.0374,0.0382,0.0387,0.0756,0.0758,0,0,0,0,0,0,-0.062,-0.0588,-0.0508,-0.0496,-0.0487,-0.0356,-0.0333,-0.0333,-0.0097,-0.0057,-0.0205,-0.0189,0.0138,0.0173,0.0204,0.0421,0.0376,0.0388,0.0395,0.0753,0.0756,0.0759,0,0,0,0,0,0,-0.0624,-0.0616,-0.0515,-0.0534,-0.0515,-0.0361,-0.0362,-0.0333,-0.0256,-0.0073,-0.0027,-0.0151,0.0144,0.0187,0.0383,0.0432,0.0393,0.0404,0.075,0.0754,0.0758,0.0694,0,0,0,0,0,0,-0.0628,-0.0619,-0.0618,-0.0538,-0.0515,-0.0471,-0.0367,-0.0333,-0.0254,-0.023,-0.0014,0.003,0.0152,0.0364,0.0395,0.0448,0.0414,0.0747,0.0752,0.0756,0.0692,0.0695,0.0697,0,0,0,0,0,-0.0633,-0.0636,-0.0621,-0.0609,-0.0524,-0.0471,-0.0453,-0.0323,-0.0258,-0.0232,-0.0043,0.0027,0.0417,0.0376,0.0411,0.0469,0.0744,0.075,0.0756,0.0692,0.0694,0.0697,0,0,0,0,0,0,-0.0652,-0.0611,-0.059,-0.0575,-0.0524,-0.0429,-0.0386,-0.0325,-0.0173,-0.0113,0.0056,0.0113,0.0313,0.0386,0.0336,0.0592,0.0591,0.0604,0.053,0.0534,0.0536,0.0494,0.0424,0,0,0,0,0,-0.0677,-0.0671,-0.0623,-0.0603,-0.0588,-0.0499,-0.0456,-0.0376,-0.0242,-0.0169,-0.0027,0.0155,0.0342,0.0438,0.0593,0.0704,0.0679,0.0767,0.0769,0.077,0.0763,0.0715,0.0709,0.0778,0.0778,0.0778,0,0,-0.067,-0.0651,-0.0639,-0.0609,-0.0557,-0.0507,-0.0455,-0.0382,-0.0285,-0.0146,0.0035,0.0172,0.038,0.0552,0.0642,0.0629,0.0742,0.0778,0.0777,0.0769,0.072,0.0712,0.0704,0.0782,0.0781,0.0781,0,0,-0.0664,-0.0653,-0.0652,-0.0618,-0.0555,-0.0493,-0.0476,-0.0385,-0.0284,-0.0129,0.003,0.0175,0.0424,0.0564,0.0681,0.0769,0.0765,0.0834,0.0801,0.0754,0.0745,0.0737,0.069,0.0678,0.082,0.082,0.082,0,-0.0656,-0.0654,-0.0636,-0.062,-0.056,-0.0488,-0.0436,-0.0344,-0.0185,-0.0111,-0.0052,0.0271,0.0433,0.0639,0.0707,0.0771,0.0736,0.077,0.0746,0.0738,0.0731,0.0685,0.0672,0.0817,0.0817,0.0818,0.0818,0,-0.0646,-0.0634,-0.0624,-0.0575,-0.0511,-0.0459,-0.0341,-0.026,-0.0143,-0.0061,0.0134,0.0306,0.0485,0.0564,0.0695,0.0753,0.0742,0.0754,0.0714,0.0718,0.0672,0.066,0.0814,0.0815,0.0815,0.0816,0,0,-0.0639,-0.0628,-0.0615,-0.0589,-0.0478,-0.0423,-0.0271,-0.0143,-0.0064,0.007,0.0155,0.0448,0.0461,0.059,0.0702,0.068,0.0624,0.0698,0.0697,0.0606,0.0503,0.0504,0.0491,0.0608,0.0606,0.0605,0.0485,0,-0.0628,-0.0631,-0.0577,-0.0488,-0.0472,-0.0342,-0.0214,-0.0076,0.0035,0.0115,0.0254,0.0393,0.0499,0.0565,0.0564,0.0627,0.0592,0.0655,0.0553,0.055,0.0512,0.0478,0.0469,0.0362,0.0473,0.0471,0.047,0,-0.0616,-0.0627,-0.0586,-0.0482,-0.045,-0.0348,-0.0166,-0.0043,0.0091,0.0163,0.0251,0.0328,0.0411,0.0448,0.0471,0.05,0.0506,0.0508,0.0503,0.0516,0.053,0.0384,0.0336,0.045,0.0452,0.0453,0.0454,0,-0.0645,-0.0596,-0.0566,-0.0532,-0.0415,-0.031,-0.0191,-0.0032,0.005,0.0159,0.0161,0.026,0.0291,0.0298,0.0366,0.0399,0.0311,0.0347,0.0342,0.0341,0.0323,0.0324,0.0304,0.0304,0.0304,0.0304,0.0305,0,-0.0652,-0.0613,-0.0582,-0.0565,-0.0469,-0.0338,-0.0208,-0.0092,0.0009,0.004,0.0161,0.0144,0.0243,0.023,0.0284,0.0273,0.0242,0.0318,0.0303,0.0306,0.0308,0.0389,0.04,0.03,0.0301,0.0302,0.0302,0,-0.0662,-0.0665,-0.0635,-0.0543,-0.0493,-0.0406,-0.0229,-0.018,-0.0064,-0.0046,-0.0026,0.0032,0.0026,0.0105,0.0103,0.0159,0.0157,0.0161,0.0169,0.0158,0.0233,0.0244,0.0116,0.0115,0.0114,0.0113,0.0113,0,-0.0671,-0.0673,-0.0636,-0.0622,-0.0562,-0.0437,-0.037,-0.0219,-0.0199,-0.014,-0.0181,-0.0158,-0.0171,-0.0152,-0.0033,0.0027,0.0079,0.005,0.0132,0.0212,0.021,0.0222,0.0234,0.0076,0.0075,0.0075,0.0074,0,-0.0672,-0.0666,-0.0661,-0.0663,-0.0607,-0.0556,-0.0458,-0.0471,-0.0349,-0.036,-0.0415,-0.0424,-0.0347,-0.0262,-0.0118,-0.0084,0.0051,0.0036,0.0071,0.0145,0.017,0.017,0.0183,0.0067,0.0068,0.0069,0.0069,0.0069,-0.0662,-0.0675,-0.0697,-0.0673,-0.0649,-0.0663,-0.0635,-0.0609,-0.0611,-0.0586,-0.0611,-0.0558,-0.0443,-0.0227,-0.0133,0.0003,-0.0018,0.0029,0.0033,0.0037,0.0073,0.0098,-0.0013,-0.0013,-0.0013,-0.0013,-0.0013,0,-0.069,-0.0693,-0.0695,-0.0713,-0.0726,-0.0677,-0.0692,-0.068,-0.0726,-0.068,-0.0676,-0.0533,-0.0415,-0.0242,-0.0039,0.0035,0.0061,0.0057,0.0089,0.0091,0.0094,0.0138,0.0067,0.0068,0.0069,0.007,0,0,-0.0708,-0.0747,-0.0759,-0.0787,-0.077,-0.078,-0.0801,-0.0796,-0.0752,-0.0705,-0.0608,-0.0534,-0.0381,-0.0205,-0.0112,0.0008,0.0037,0.0014,-0.0073,-0.0049,-0.0044,0.0036,0.0099,0,0,0,0,0]}],[{"header":{"parameterUnit":"m.s-1","parameterCategory":2,"la1":30.2991,"la2":30.254,"lo1":-89.0895,"lo2":-89.0444,"dy":0.0017,"dx":0.0017,"nx":28,"ny":28,"refTime":"2023-07-28T09:00:00:Z","depth":"4","parameterNumber":2,"parameterNumberName":"U-component_of_CURRENTS"},"data":[0,0,0,0,0,0,0,0,0,0,0,0,0,0,0,0,0,0,0,0,0,0,0,0,0,0,0,0,0,0,0,0,0,0,0,0,0,0,0,0,0,0,0,0,0,0,0,0,0,0,0,0,0,0,0,0,0,0,-0.0775,-0.0776,0,-0.0843,-0.0843,-0.0844,-0.0858,-0.0858,-0.0858,-0.0858,-0.0865,-0.0865,-0.0866,0,0,0,0,0,0,0,0,0,0,0,0,0,-0.0685,-0.0686,-0.0775,-0.0776,-0.0777,-0.0843,-0.0843,-0.0844,-0.0858,-0.0858,-0.0858,-0.0858,-0.0865,-0.0865,-0.0866,0,0,0,0,0,0,0,0,0,0,0,0,0,-0.0732,-0.0686,-0.0775,-0.0796,-0.0798,-0.0843,-0.0843,-0.0844,-0.0858,-0.0858,-0.0858,-0.0858,-0.0865,-0.0865,-0.0866,-0.0872,0,0,-0.0867,-0.0867,0,0,0,0,0,0,0,0,-0.0729,-0.0734,-0.0791,-0.0794,-0.0798,-0.0846,-0.0815,-0.0852,-0.0858,-0.0831,-0.0858,-0.0858,-0.0856,-0.0857,-0.0865,-0.0872,-0.0873,-0.0867,-0.0867,-0.0868,-0.0868,0,0,0,0,0,0,0,-0.0726,-0.0732,-0.0798,-0.0793,-0.0797,-0.0811,-0.0817,-0.0822,-0.0839,-0.0834,-0.0836,-0.085,-0.0856,-0.0865,-0.0865,-0.0873,-0.0867,-0.0868,-0.0868,-0.0868,-0.092,-0.0921,0,0,0,0,0,0,-0.0725,-0.0729,-0.0795,-0.08,-0.0767,-0.0813,-0.0819,-0.0827,-0.0841,-0.0844,-0.085,-0.0851,-0.0864,-0.0865,-0.0865,-0.0901,-0.0868,-0.0868,-0.0868,-0.0919,-0.092,-0.0921,0,0,0,0,0,0,-0.0722,-0.073,-0.0793,-0.0769,-0.0779,-0.0815,-0.0823,-0.0828,-0.085,-0.0855,-0.0856,-0.0868,-0.0864,-0.0865,-0.0881,-0.09,-0.0868,-0.0869,-0.0917,-0.0919,-0.0921,-0.0954,0,0,0,0,0,0,-0.0719,-0.0728,-0.0734,-0.0769,-0.0781,-0.0821,-0.0824,-0.083,-0.086,-0.0861,-0.087,-0.087,-0.0864,-0.0881,-0.0882,-0.09,-0.0869,-0.0916,-0.0918,-0.092,-0.0951,-0.0956,-0.0961,0,0,0,0,0,-0.0716,-0.0724,-0.0734,-0.0743,-0.0787,-0.0822,-0.0828,-0.0851,-0.0861,-0.0869,-0.088,-0.087,-0.0895,-0.0882,-0.0883,-0.0902,-0.0915,-0.0917,-0.092,-0.0949,-0.0955,-0.0961,0,0,0,0,0,0,-0.0685,-0.0728,-0.0739,-0.0759,-0.079,-0.0826,-0.0839,-0.086,-0.0878,-0.088,-0.0882,-0.0883,-0.0906,-0.0901,-0.0887,-0.0924,-0.0904,-0.0907,-0.0926,-0.0932,-0.0937,-0.0913,-0.0869,0,0,0,0,0,-0.0684,-0.0703,-0.0742,-0.076,-0.0774,-0.081,-0.0829,-0.0848,-0.0871,-0.088,-0.0888,-0.09,-0.0916,-0.0922,-0.0929,-0.0947,-0.094,-0.0962,-0.0966,-0.097,-0.0953,-0.0979,-0.0984,-0.0929,-0.0929,-0.0929,0,0,-0.0683,-0.0705,-0.072,-0.0756,-0.0779,-0.0799,-0.082,-0.0852,-0.0872,-0.0877,-0.0899,-0.0916,-0.0925,-0.0947,-0.0957,-0.0946,-0.0984,-0.0974,-0.0977,-0.0956,-0.0982,-0.0987,-0.0992,-0.0931,-0.0931,-0.093,0,0,-0.0681,-0.0704,-0.0717,-0.074,-0.0781,-0.0802,-0.0815,-0.0856,-0.0875,-0.0904,-0.0917,-0.0941,-0.0962,-0.0972,-0.098,-0.1015,-0.1009,-0.103,-0.1032,-0.1059,-0.1063,-0.1067,-0.1067,-0.107,-0.1031,-0.1032,-0.1032,0,-0.0677,-0.0692,-0.0726,-0.074,-0.0758,-0.0803,-0.0816,-0.0845,-0.0888,-0.0903,-0.091,-0.0958,-0.0968,-0.0997,-0.1013,-0.1023,-0.1033,-0.101,-0.1064,-0.1068,-0.1071,-0.107,-0.1073,-0.1033,-0.1033,-0.1033,-0.1033,0,-0.0679,-0.0695,-0.0704,-0.0732,-0.0757,-0.0778,-0.0821,-0.0848,-0.0879,-0.0907,-0.0947,-0.097,-0.0994,-0.1015,-0.1024,-0.1061,-0.1059,-0.1069,-0.1047,-0.1078,-0.1075,-0.1078,-0.1036,-0.1035,-0.1035,-0.1034,0,0,-0.0663,-0.0697,-0.0701,-0.0707,-0.0753,-0.0771,-0.0807,-0.0846,-0.0866,-0.0913,-0.0935,-0.0983,-0.1004,-0.1015,-0.1041,-0.1065,-0.1103,-0.108,-0.1081,-0.1073,-0.1152,-0.1022,-0.1012,-0.1136,-0.1137,-0.1138,-0.1142,0,-0.0652,-0.0664,-0.0688,-0.0704,-0.0714,-0.0758,-0.0783,-0.0829,-0.0867,-0.0898,-0.0944,-0.097,-0.1005,-0.1019,-0.1056,-0.1091,-0.1112,-0.11,-0.1127,-0.1127,-0.1002,-0.1011,-0.114,-0.1143,-0.1144,-0.1144,-0.1145,0,-0.0642,-0.0651,-0.0662,-0.0685,-0.0692,-0.0709,-0.075,-0.078,-0.0841,-0.0868,-0.0914,-0.0949,-0.0997,-0.1016,-0.1089,-0.1086,-0.1117,-0.114,-0.1141,-0.1002,-0.1,-0.1106,-0.1149,-0.1149,-0.1149,-0.1148,-0.1148,0,-0.061,-0.063,-0.0634,-0.0645,-0.0683,-0.0695,-0.0716,-0.0773,-0.0793,-0.0847,-0.0854,-0.093,-0.0949,-0.1018,-0.1069,-0.1092,-0.1128,-0.1165,-0.1071,-0.1062,-0.1165,-0.1161,-0.1202,-0.1202,-0.1202,-0.1202,-0.1202,0,-0.0586,-0.059,-0.0617,-0.0623,-0.0627,-0.0665,-0.0681,-0.0712,-0.0753,-0.0763,-0.0833,-0.0838,-0.0953,-0.0991,-0.1056,-0.105,-0.1121,-0.1052,-0.105,-0.118,-0.1178,-0.1167,-0.1163,-0.1202,-0.1202,-0.1202,-0.1202,0,-0.0556,-0.0576,-0.058,-0.0607,-0.0615,-0.062,-0.0649,-0.0657,-0.0695,-0.0704,-0.0714,-0.0776,-0.0816,-0.09,-0.0988,-0.0994,-0.1024,-0.1005,-0.1106,-0.1114,-0.0949,-0.0948,-0.0908,-0.0903,-0.0899,-0.0896,-0.0893,0,-0.0541,-0.0544,-0.0562,-0.0559,-0.057,-0.0584,-0.0592,-0.0632,-0.0631,-0.0654,-0.0641,-0.0677,-0.0721,-0.0737,-0.0836,-0.0909,-0.0916,-0.0912,-0.0956,-0.0914,-0.0918,-0.0922,-0.0925,-0.0887,-0.0886,-0.0885,-0.0884,0,-0.0517,-0.0527,-0.0528,-0.0519,-0.052,-0.0518,-0.0522,-0.0513,-0.0546,-0.0577,-0.0555,-0.0574,-0.0596,-0.0673,-0.0705,-0.0771,-0.0908,-0.0871,-0.0881,-0.0924,-0.0889,-0.0897,-0.0905,-0.087,-0.0872,-0.0873,-0.0874,0,-0.0499,-0.0487,-0.0487,-0.0473,-0.0464,-0.0439,-0.0457,-0.0443,-0.0451,-0.0474,-0.0465,-0.0517,-0.0574,-0.0596,-0.0641,-0.0669,-0.0691,-0.0696,-0.0716,-0.0732,-0.0673,-0.0603,-0.0477,0,0,0,0,0,-0.0477,-0.0458,-0.0439,-0.0413,-0.0394,-0.039,-0.0398,-0.0419,-0.0445,-0.0408,-0.0435,-0.0455,-0.0485,-0.0519,-0.0524,-0.058,-0.0703,-0.058,-0.072,-0.0794,-0.081,-0.0758,0,0,0,0,0,0,-0.0462,-0.0446,-0.0428,-0.0361,-0.0327,-0.0306,-0.031,-0.0333,-0.0319,-0.0353,-0.0386,-0.0407,-0.0467,-0.0483,-0.051,-0.0521,-0.0593,-0.0618,-0.0616,-0.0785,-0.0799,-0.0812,-0.0765,0,0,0,0,0]},{"header":{"parameterUnit":"m.s-1","parameterCategory":2,"la1":30.2991,"la2":30.254,"lo1":-89.0895,"lo2":-89.0444,"dy":0.0017,"dx":0.0017,"nx":28,"ny":28,"refTime":"2023-07-28T09:00:00:Z","depth":"4","parameterNumber":3,"parameterNumberName":"V-component_of_CURRENTS"},"data":[0,0,0,0,0,0,0,0,0,0,0,0,0,0,0,0,0,0,0,0,0,0,0,0,0,0,0,0,0,0,0,0,0,0,0,0,0,0,0,0,0,0,0,0,0,0,0,0,0,0,0,0,0,0,0,0,0,0,-0.0513,-0.0513,0,-0.0516,-0.0516,-0.0516,-0.0543,-0.0543,-0.0544,-0.0544,-0.0573,-0.0573,-0.0574,0,0,0,0,0,0,0,0,0,0,0,0,0,-0.0523,-0.0523,-0.0513,-0.0513,-0.0513,-0.0516,-0.0516,-0.0516,-0.0543,-0.0543,-0.0544,-0.0544,-0.0573,-0.0573,-0.0574,0,0,0,0,0,0,0,0,0,0,0,0,0,-0.0525,-0.0523,-0.0513,-0.0524,-0.0525,-0.0516,-0.0516,-0.0517,-0.0543,-0.0543,-0.0544,-0.0545,-0.0572,-0.0573,-0.0574,-0.0566,0,0,-0.0576,-0.0576,0,0,0,0,0,0,0,0,-0.0525,-0.0525,-0.0523,-0.0523,-0.0524,-0.0527,-0.053,-0.0533,-0.0543,-0.0539,-0.0544,-0.0545,-0.0557,-0.0559,-0.0563,-0.0567,-0.0568,-0.0576,-0.0576,-0.0576,-0.0576,0,0,0,0,0,0,0,-0.0524,-0.0525,-0.0517,-0.0522,-0.0523,-0.0526,-0.0527,-0.0531,-0.0548,-0.054,-0.0541,-0.0536,-0.0559,-0.0562,-0.0563,-0.0569,-0.0576,-0.0576,-0.0576,-0.0577,-0.0623,-0.0624,0,0,0,0,0,0,-0.0518,-0.0524,-0.0517,-0.0517,-0.0522,-0.0525,-0.0527,-0.0528,-0.0547,-0.055,-0.0535,-0.0537,-0.0561,-0.0563,-0.0565,-0.0606,-0.0576,-0.0577,-0.0577,-0.0622,-0.0623,-0.0624,0,0,0,0,0,0,-0.0518,-0.0517,-0.0517,-0.0518,-0.0518,-0.0524,-0.0525,-0.0528,-0.0541,-0.0543,-0.0547,-0.0548,-0.0561,-0.0564,-0.0594,-0.0606,-0.0577,-0.0578,-0.0621,-0.0623,-0.0624,-0.0657,0,0,0,0,0,0,-0.0518,-0.0518,-0.0525,-0.0518,-0.0517,-0.0527,-0.0525,-0.0527,-0.0535,-0.0538,-0.0555,-0.0558,-0.0562,-0.0593,-0.0595,-0.0606,-0.0578,-0.062,-0.0622,-0.0623,-0.0655,-0.066,-0.0664,0,0,0,0,0,-0.0519,-0.0523,-0.0525,-0.0525,-0.0525,-0.0527,-0.0528,-0.0536,-0.0535,-0.0549,-0.0568,-0.0558,-0.0604,-0.0595,-0.0596,-0.0608,-0.0619,-0.0621,-0.0623,-0.0653,-0.0659,-0.0663,0,0,0,0,0,0,-0.0526,-0.0525,-0.0528,-0.0531,-0.0536,-0.0531,-0.0537,-0.0539,-0.0562,-0.0569,-0.0572,-0.0577,-0.0607,-0.0604,-0.0593,-0.0626,-0.0608,-0.061,-0.063,-0.0636,-0.064,-0.0645,-0.0579,0,0,0,0,0,-0.053,-0.0538,-0.0535,-0.0539,-0.054,-0.054,-0.0543,-0.055,-0.0561,-0.0572,-0.0582,-0.0596,-0.0613,-0.0623,-0.0636,-0.0653,-0.0625,-0.0661,-0.0665,-0.0668,-0.0674,-0.065,-0.0652,-0.0631,-0.0631,-0.0631,0,0,-0.0533,-0.0532,-0.0537,-0.0542,-0.0543,-0.0557,-0.0545,-0.0554,-0.0571,-0.057,-0.0602,-0.0612,-0.0622,-0.0649,-0.0661,-0.065,-0.0655,-0.0671,-0.0674,-0.0678,-0.0652,-0.0654,-0.0656,-0.0632,-0.0632,-0.0632,0,0,-0.0539,-0.0542,-0.0553,-0.0563,-0.0569,-0.0572,-0.0577,-0.0582,-0.0592,-0.062,-0.0626,-0.0652,-0.0667,-0.0686,-0.0694,-0.0727,-0.0679,-0.0721,-0.0745,-0.0722,-0.0723,-0.0724,-0.0666,-0.0662,-0.0721,-0.0721,-0.0722,0,-0.0545,-0.0557,-0.0556,-0.0572,-0.0584,-0.0581,-0.0602,-0.0609,-0.0628,-0.0641,-0.0638,-0.068,-0.0688,-0.0725,-0.0739,-0.0738,-0.0698,-0.0725,-0.0726,-0.0727,-0.0727,-0.0668,-0.0662,-0.0723,-0.0723,-0.0723,-0.0723,0,-0.056,-0.0579,-0.0584,-0.0608,-0.0623,-0.0637,-0.0648,-0.0665,-0.0672,-0.0683,-0.0718,-0.0733,-0.0759,-0.0762,-0.0761,-0.0773,-0.0734,-0.0733,-0.071,-0.0731,-0.0667,-0.0661,-0.0726,-0.0725,-0.0725,-0.0724,0,0,-0.0554,-0.0589,-0.0595,-0.0619,-0.0646,-0.066,-0.0687,-0.0713,-0.0737,-0.0752,-0.0782,-0.0811,-0.0813,-0.0823,-0.0822,-0.0805,-0.0767,-0.0767,-0.0765,-0.0704,-0.0677,-0.0636,-0.0624,-0.0756,-0.0756,-0.0756,-0.0622,0,-0.0569,-0.0609,-0.0624,-0.0671,-0.0693,-0.071,-0.0738,-0.0765,-0.0783,-0.0812,-0.0822,-0.0856,-0.0836,-0.0853,-0.0832,-0.0799,-0.0755,-0.0801,-0.0672,-0.0668,-0.0625,-0.0618,-0.0755,-0.0617,-0.0616,-0.0615,-0.0614,0,-0.0583,-0.0609,-0.0657,-0.0709,-0.072,-0.0751,-0.08,-0.0827,-0.0862,-0.0875,-0.09,-0.0907,-0.0912,-0.0884,-0.0809,-0.0833,-0.0752,-0.0707,-0.0701,-0.065,-0.0616,-0.0599,-0.0602,-0.0603,-0.0604,-0.0605,-0.0605,0,-0.0582,-0.0634,-0.0676,-0.0695,-0.0749,-0.0777,-0.0807,-0.085,-0.0875,-0.0921,-0.0941,-0.0944,-0.0947,-0.087,-0.0783,-0.0788,-0.0671,-0.067,-0.0545,-0.054,-0.0601,-0.0602,-0.0587,-0.0587,-0.0588,-0.0588,-0.0588,0,-0.059,-0.0629,-0.0681,-0.0705,-0.0755,-0.0794,-0.0846,-0.0875,-0.092,-0.0949,-0.0974,-0.0984,-0.094,-0.0876,-0.0782,-0.0641,-0.0663,-0.0542,-0.0509,-0.0615,-0.0619,-0.0594,-0.0596,-0.0583,-0.0584,-0.0585,-0.0586,0,-0.0592,-0.0625,-0.0677,-0.0737,-0.0757,-0.0797,-0.0859,-0.0893,-0.0937,-0.0973,-0.0989,-0.1002,-0.0921,-0.0843,-0.0718,-0.0637,-0.0517,-0.0448,-0.0544,-0.0519,-0.0392,-0.0398,-0.0302,-0.03,-0.0297,-0.0296,-0.0294,0,-0.0597,-0.0623,-0.0692,-0.0719,-0.075,-0.0806,-0.0839,-0.0893,-0.0919,-0.0969,-0.0974,-0.0942,-0.0923,-0.0712,-0.0638,-0.0451,-0.0421,-0.035,-0.0395,-0.0388,-0.0365,-0.0375,-0.0383,-0.0291,-0.0291,-0.029,-0.0289,0,-0.0605,-0.0633,-0.0671,-0.0717,-0.076,-0.0806,-0.085,-0.0861,-0.0915,-0.0957,-0.0938,-0.088,-0.0783,-0.0675,-0.0532,-0.0402,-0.041,-0.0328,-0.0332,-0.0373,-0.0373,-0.0355,-0.0366,-0.0282,-0.0283,-0.0284,-0.0284,0,-0.0609,-0.0632,-0.0671,-0.0712,-0.0762,-0.0789,-0.0817,-0.0831,-0.0857,-0.0898,-0.0881,-0.0827,-0.081,-0.0645,-0.0515,-0.0393,-0.0362,-0.0324,-0.0327,-0.0334,-0.04,-0.0408,-0.0292,0,0,0,0,0,-0.0605,-0.0622,-0.0659,-0.0702,-0.075,-0.0777,-0.0817,-0.0839,-0.0874,-0.0844,-0.0861,-0.077,-0.0625,-0.0587,-0.0448,-0.0468,-0.0338,-0.0302,-0.0295,-0.0243,-0.0251,-0.0322,0,0,0,0,0,0,-0.0603,-0.0635,-0.0648,-0.0681,-0.0708,-0.0757,-0.0782,-0.0807,-0.0782,-0.0809,-0.0728,-0.0728,-0.0581,-0.0696,-0.0445,-0.0417,-0.039,-0.025,-0.0246,-0.0238,-0.0246,-0.0252,-0.0328,0,0,0,0,0]}]]